Погода в Сиолиме

Индия     15°37′23″N   73°45′39″E
темп.,
°C
ветер,
м/с
пор.,
м/с
влажн.,
%
обл.,
%
осадки,
мм/ч
давл.,
гПа
погр.,
м
6 марта, сб
сб623:30+26с34820 0.0 1014287
02:30+24всв22840 0.0 1012117
05:30+23в22830 0.0 1012112
08:30+25в33770 0.0 1015170
11:30+27юз32730 0.0 1015413
14:30+28з55732 0.0 1011417
17:30+28зсз67731 0.0 1010634
20:30+27сз45750 0.0 1012479
7 марта, вс
вс723:30+26с44740 0.0 1013446
02:30+24св22800 0.0 1011142
05:30+23ссв23790 0.0 1010209
08:30+24св22740 0.0 1013233
11:30+27з43610 0.0 1013377
14:30+28з66630 0.0 1009365
17:30+29сз79640 0.0 1008521
20:30+28ссз711680 0.0 1010437
8 марта, пн
пн823:30+26с69600 0.0 1011374
02:30+25с57580 0.0 1009256
05:30+25с46570 0.0 1009271
08:30+25вюв33590 0.0 1012225
11:30+28зюз33510 0.0 1012277
14:30+29з55470 0.0 1009269
17:30+29сз67590 0.0 1008353
20:30+28ссз69680 0.0 1010312
9 марта, вт
вт923:30+26с46620 0.0 1011326
02:30+25св34590 0.0 1010206
05:30+24в22600 0.0 101090
08:30+26в22620 0.0 1013229
11:30+28зюз33550 0.0 1013325
14:30+28з66610 0.0 1009353
17:30+28сз56690 0.0 1008454
20:30+27ссз56760 0.0 1011336
10 марта, ср
ср1023:30+26с45760 0.0 1012297
02:30+24всв22760 0.0 1010145
05:30+24в22800 0.0 1010121
08:30+25вюв22750 0.0 1013218
11:30+27з32670 0.0 1013339
14:30+28зсз77630 0.0 1008315
17:30+29сз78680 0.0 1008462
20:30+28ссз58750 0.0 1010328